OCEANSAT-2

Last updated on Sun Apr 12 2026 00:02:34 GMT+0000 (Coordinated Universal Time)

1 35931U 09051A 26101.50293015 -.00000139 00000+0 -69261-4 0 9993 2 35931 98.2314 95.0242 0017065 64.1609 296.1316 13.99654670870000
UTC large
Height (km)
Speed (km/s)
/
Latitude / Longitude
Inclination (degrees)
Orbital Period (minutes)
Azimuth
Elevation
Range (km)
Doppler Factor

Next 0 passes for location: London (51.5072 / 0.1276)

Sorry there are no passes over London.
OCEANSAT-2